[[{"header":{"parameterUnit":"m.s-1","parameterCategory":1,"la1":30.2991,"la2":30.254,"lo1":-89.0895,"lo2":-89.0444,"dy":0.0017,"dx":0.0017,"nx":28,"ny":28,"refTime":"2024-10-15T03:00:00:Z","depth":0,"parameterNumber":2,"parameterNumberName":"U-component_of_WINDS"},"data":[0,0,0,0,0,0,0,0,0,0,0,0,0,0,0,0,0,0,0,0,0,0,0,0,0,0,0,0,0,0,0,0,0,0,0,0,0,0,0,0,0,0,0,0,0,0,0,0,0,0,0,0,0,0,0,0,0,0,-3.9746,-3.9746,0,-3.9773,-3.9773,-3.9773,-3.9686,-3.9683,-3.968,-3.9678,-3.9706,-3.9709,-3.9713,0,0,0,0,0,0,0,0,0,0,0,0,0,-3.9622,-3.9625,-3.9746,-3.9746,-3.9747,-3.9773,-3.9773,-3.9773,-3.9686,-3.9683,-3.968,-3.9677,-3.9705,-3.9709,-3.9713,0,0,0,0,0,0,0,0,0,0,0,0,0,-3.9665,-3.9626,-3.9746,-3.9706,-3.9703,-3.9773,-3.9773,-3.9774,-3.9687,-3.9683,-3.9679,-3.9675,-3.9704,-3.9709,-3.9713,-3.9823,0,0,-3.9728,-3.973,0,0,0,0,0,0,0,0,-3.9663,-3.967,-3.9712,-3.9709,-3.9705,-3.9722,-3.974,-3.979,-3.9688,-3.9693,-3.9678,-3.9673,-3.9715,-3.9718,-3.9732,-3.9824,-3.9826,-3.9729,-3.9732,-3.9734,-3.9735,0,0,0,0,0,0,0,-3.966,-3.9668,-3.9757,-3.9712,-3.9709,-3.9688,-3.969,-3.9749,-3.9726,-3.9692,-3.9686,-3.969,-3.9712,-3.9728,-3.9732,-3.9826,-3.9729,-3.9733,-3.9736,-3.9738,-4.0012,-4.0016,0,0,0,0,0,0,-3.9662,-3.9666,-3.9756,-3.9757,-3.9674,-3.9694,-3.9695,-3.9721,-3.9725,-3.9722,-3.9694,-3.9686,-3.9721,-3.9727,-3.9733,-3.9861,-3.9734,-3.9738,-3.9741,-4.0007,-4.0013,-4.0017,0,0,0,0,0,0,-3.966,-3.9671,-3.9755,-3.971,-3.9719,-3.97,-3.9729,-3.9723,-3.9738,-3.9726,-3.9722,-3.9713,-3.9718,-3.9726,-3.9802,-3.9861,-3.974,-3.9745,-4.0002,-4.0009,-4.0015,-4.0118,0,0,0,0,0,0,-3.9657,-3.9671,-3.9711,-3.9712,-3.9722,-3.9822,-3.9733,-3.9727,-3.9747,-3.9737,-3.9743,-3.9741,-3.9716,-3.9795,-3.9806,-3.9865,-3.9749,-3.9997,-4.0005,-4.0013,-4.0109,-4.0128,-4.0143,0,0,0,0,0,-3.9652,-3.9738,-3.9713,-3.9724,-3.9772,-3.9825,-3.9831,-3.98,-3.9752,-3.9793,-3.9786,-3.974,-3.9854,-3.9803,-3.9816,-3.9877,-3.9993,-4.0003,-4.0012,-4.0102,-4.0124,-4.0143,0,0,0,0,0,0,-3.9743,-3.9738,-3.9709,-3.9798,-3.9813,-3.981,-3.986,-3.9825,-3.9854,-3.9843,-3.9805,-3.9808,-3.989,-3.9892,-3.9836,-3.9984,-3.9915,-3.9928,-3.9979,-4.0,-4.0016,-4.0012,-3.9753,0,0,0,0,0,-3.9774,-3.9818,-3.9811,-3.989,-3.9899,-3.9879,-3.9901,-3.9877,-3.9891,-3.9896,-3.9894,-3.991,-3.9949,-3.9975,-4.0011,-4.0112,-4.0112,-4.016,-4.0177,-4.0191,-4.0201,-4.0255,-4.0276,-4.005,-4.005,-4.0049,0,0,-3.9837,-3.984,-3.9869,-3.9908,-3.9917,-3.9963,-3.9884,-3.9936,-3.997,-3.9904,-3.9974,-3.9975,-3.999,-4.0079,-4.0118,-4.0083,-4.0265,-4.0204,-4.0215,-4.0217,-4.0267,-4.0289,-4.0308,-4.0056,-4.0055,-4.0054,0,0,-3.9974,-3.9982,-4.0048,-4.006,-4.0074,-4.0061,-4.0078,-4.0082,-4.0079,-4.015,-4.0102,-4.0144,-4.0212,-4.0225,-4.024,-4.039,-4.0349,-4.0403,-4.0489,-4.0542,-4.056,-4.0575,-4.0627,-4.0646,-4.0414,-4.0415,-4.0415,0,-4.005,-4.0117,-4.0087,-4.0143,-4.0162,-4.0107,-4.0174,-4.0187,-4.0213,-4.0228,-4.0189,-4.0275,-4.0282,-4.0373,-4.041,-4.0425,-4.0443,-4.0399,-4.056,-4.0575,-4.0589,-4.0638,-4.0658,-4.0421,-4.042,-4.0419,-4.0419,0,-4.0209,-4.0258,-4.031,-4.0337,-4.0363,-4.0424,-4.0404,-4.0435,-4.0411,-4.0403,-4.0477,-4.0484,-4.052,-4.0542,-4.0518,-4.0631,-4.0608,-4.0566,-4.0494,-4.0617,-4.0662,-4.0681,-4.043,-4.0427,-4.0425,-4.0424,0,0,-4.0398,-4.0411,-4.043,-4.0443,-4.0458,-4.0494,-4.0556,-4.0592,-4.0618,-4.0641,-4.069,-4.0752,-4.0714,-4.0732,-4.0711,-4.0758,-4.0875,-4.071,-4.0709,-4.0738,-4.0999,-4.1027,-4.1049,-4.0851,-4.0855,-4.0857,-4.0996,0,-4.0531,-4.0633,-4.0611,-4.0712,-4.0756,-4.0708,-4.0762,-4.0778,-4.0774,-4.0812,-4.0808,-4.0852,-4.0799,-4.0809,-4.0855,-4.0851,-4.0926,-4.0842,-4.0896,-4.0898,-4.0888,-4.1073,-4.1103,-4.1233,-4.1014,-4.1017,-4.1019,0,-4.0697,-4.0727,-4.0833,-4.0843,-4.0861,-4.0909,-4.0941,-4.0979,-4.0998,-4.0992,-4.1015,-4.0986,-4.1048,-4.0981,-4.1067,-4.101,-4.1032,-4.1035,-4.1039,-4.1039,-4.0962,-4.1074,-4.1274,-4.1292,-4.1047,-4.1045,-4.1043,0,-4.0821,-4.0887,-4.0959,-4.0972,-4.0987,-4.1022,-4.103,-4.1045,-4.1069,-4.1099,-4.1114,-4.1152,-4.1171,-4.1202,-4.1185,-4.1138,-4.1273,-4.1205,-4.1269,-4.127,-4.1295,-4.1292,-4.1497,-4.1317,-4.1317,-4.1317,-4.1316,0,-4.0969,-4.1035,-4.1015,-4.1059,-4.1133,-4.1109,-4.1183,-4.1185,-4.12,-4.1245,-4.1208,-4.125,-4.1227,-4.1269,-4.1257,-4.1329,-4.134,-4.1336,-4.1331,-4.1337,-4.1337,-4.1346,-4.1335,-4.1322,-4.1321,-4.132,-4.1319,0,-4.1115,-4.1105,-4.118,-4.119,-4.1195,-4.1248,-4.1257,-4.1299,-4.1295,-4.1352,-4.1364,-4.1357,-4.1405,-4.1393,-4.1445,-4.1437,-4.1528,-4.1514,-4.152,-4.1515,-4.1579,-4.1572,-4.1793,-4.1821,-4.1628,-4.163,-4.1631,0,-4.1208,-4.1258,-4.1274,-4.1301,-4.1312,-4.1357,-4.1382,-4.1363,-4.1391,-4.1419,-4.1457,-4.1503,-4.1536,-4.1616,-4.1616,-4.1657,-4.1641,-4.1716,-4.1646,-4.1651,-4.1638,-4.1633,-4.1638,-4.1728,-4.173,-4.1732,-4.1733,0,-4.1372,-4.1366,-4.1403,-4.144,-4.1472,-4.15,-4.1525,-4.155,-4.1533,-4.1567,-4.1615,-4.1642,-4.1697,-4.1742,-4.178,-4.179,-4.1759,-4.1757,-4.1773,-4.1776,-4.1777,-4.1774,-4.1554,-4.175,-4.1748,-4.1747,-4.1746,-4.1745,-4.1491,-4.1534,-4.1553,-4.1597,-4.1614,-4.164,-4.1679,-4.1682,-4.1722,-4.1764,-4.1752,-4.1808,-4.1829,-4.1878,-4.1893,-4.1937,-4.1908,-4.1933,-4.1938,-4.1943,-4.195,-4.1775,-4.1945,-4.1944,-4.1944,-4.1943,-4.1943,0,-4.165,-4.1662,-4.1703,-4.174,-4.1775,-4.1747,-4.1774,-4.1805,-4.1854,-4.1877,-4.1913,-4.197,-4.2015,-4.2022,-4.2065,-4.2099,-4.2086,-4.2111,-4.2105,-4.2108,-4.1974,-4.1954,-4.212,-4.212,-4.212,-4.212,-4.212,-4.212,-4.1737,-4.1807,-4.1804,-4.1884,-4.1895,-4.1949,-4.1967,-4.1991,-4.2009,-4.2075,-4.2112,-4.2117,-4.2134,-4.2179,-4.222,-4.2221,-4.2236,-4.2266,-4.2261,-4.2135,-4.2117,-4.21,-4.208,-4.2271,-4.2271,-4.239,-4.2391,-4.2392]},{"header":{"parameterUnit":"m.s-1","parameterCategory":1,"la1":30.2991,"la2":30.254,"lo1":-89.0895,"lo2":-89.0444,"dy":0.0017,"dx":0.0017,"nx":28,"ny":28,"refTime":"2024-10-15T03:00:00:Z","depth":0,"parameterNumber":3,"parameterNumberName":"V-component_of_WINDS"},"data":[0,0,0,0,0,0,0,0,0,0,0,0,0,0,0,0,0,0,0,0,0,0,0,0,0,0,0,0,0,0,0,0,0,0,0,0,0,0,0,0,0,0,0,0,0,0,0,0,0,0,0,0,0,0,0,0,0,0,-0.5325,-0.5323,0,-0.5165,-0.5163,-0.5162,-0.5082,-0.5082,-0.5082,-0.5082,-0.4917,-0.4913,-0.4909,0,0,0,0,0,0,0,0,0,0,0,0,0,-0.5555,-0.5551,-0.5325,-0.5323,-0.5321,-0.5166,-0.5163,-0.5161,-0.5082,-0.5082,-0.5082,-0.5082,-0.4919,-0.4914,-0.4908,0,0,0,0,0,0,0,0,0,0,0,0,0,-0.5431,-0.555,-0.5325,-0.5263,-0.5256,-0.5166,-0.5163,-0.5161,-0.5082,-0.5082,-0.5082,-0.5082,-0.4921,-0.4914,-0.4908,-0.4867,0,0,-0.4888,-0.4885,0,0,0,0,0,0,0,0,-0.5439,-0.5423,-0.5274,-0.5267,-0.5259,-0.5144,-0.5184,-0.5062,-0.5082,-0.5148,-0.5082,-0.5082,-0.4993,-0.498,-0.495,-0.4859,-0.4852,-0.4887,-0.4883,-0.488,-0.4878,0,0,0,0,0,0,0,-0.5447,-0.5429,-0.5262,-0.5272,-0.5263,-0.5241,-0.5223,-0.516,-0.5072,-0.5142,-0.5136,-0.5119,-0.4988,-0.4957,-0.4946,-0.485,-0.4887,-0.4881,-0.4877,-0.4875,-0.4713,-0.4712,0,0,0,0,0,0,-0.5466,-0.5437,-0.5267,-0.5257,-0.5351,-0.5237,-0.5217,-0.5181,-0.5073,-0.5056,-0.5119,-0.5116,-0.4968,-0.4953,-0.494,-0.4882,-0.488,-0.4874,-0.487,-0.4713,-0.4712,-0.4712,0,0,0,0,0,0,-0.5472,-0.5452,-0.5273,-0.5345,-0.5321,-0.5233,-0.5193,-0.5178,-0.5146,-0.5055,-0.5038,-0.5103,-0.4967,-0.4949,-0.4885,-0.4875,-0.4871,-0.4865,-0.4713,-0.4713,-0.4712,-0.4769,0,0,0,0,0,0,-0.5479,-0.5454,-0.544,-0.5345,-0.5317,-0.5223,-0.5192,-0.5174,-0.5135,-0.5129,-0.5036,-0.502,-0.4966,-0.4895,-0.4878,-0.4866,-0.486,-0.4714,-0.4713,-0.4712,-0.4768,-0.4771,-0.4773,0,0,0,0,0,-0.5487,-0.5463,-0.544,-0.542,-0.5297,-0.5223,-0.5206,-0.5145,-0.5135,-0.5118,-0.5058,-0.5023,-0.4879,-0.4889,-0.487,-0.4856,-0.4714,-0.4713,-0.4712,-0.4767,-0.477,-0.4773,0,0,0,0,0,0,-0.5559,-0.545,-0.5423,-0.5368,-0.5305,-0.521,-0.5187,-0.5151,-0.509,-0.5087,-0.5012,-0.4992,-0.4934,-0.4888,-0.4901,-0.4808,-0.4793,-0.4788,-0.4841,-0.4843,-0.4846,-0.4858,-0.4854,0,0,0,0,0,-0.5569,-0.5518,-0.5425,-0.5385,-0.5355,-0.5276,-0.5242,-0.5199,-0.5131,-0.5104,-0.504,-0.4975,-0.4914,-0.4876,-0.4815,-0.476,-0.4737,-0.474,-0.4743,-0.4746,-0.4743,-0.4706,-0.4705,-0.4709,-0.4709,-0.4709,0,0,-0.5588,-0.5522,-0.5495,-0.5398,-0.5344,-0.5291,-0.5255,-0.5202,-0.5161,-0.5096,-0.5031,-0.4981,-0.4903,-0.4842,-0.4812,-0.4802,-0.4736,-0.4745,-0.4747,-0.4743,-0.4705,-0.4705,-0.4704,-0.4709,-0.4709,-0.4709,0,0,-0.5596,-0.5542,-0.5501,-0.5447,-0.5366,-0.5313,-0.5303,-0.5212,-0.5176,-0.511,-0.5058,-0.5008,-0.4906,-0.4851,-0.481,-0.4791,-0.4755,-0.4773,-0.4788,-0.4753,-0.4753,-0.4752,-0.4743,-0.4741,-0.477,-0.477,-0.4771,0,-0.563,-0.555,-0.5484,-0.5433,-0.539,-0.5327,-0.5283,-0.5234,-0.5138,-0.5108,-0.5098,-0.4966,-0.4909,-0.4832,-0.4827,-0.4797,-0.4781,-0.4784,-0.4758,-0.4757,-0.4755,-0.4746,-0.4743,-0.4773,-0.4773,-0.4773,-0.4772,0,-0.5594,-0.5539,-0.5516,-0.5423,-0.5377,-0.5331,-0.5255,-0.5216,-0.5176,-0.5123,-0.5054,-0.4982,-0.4905,-0.4883,-0.4844,-0.4799,-0.4795,-0.4773,-0.4756,-0.4759,-0.4748,-0.4744,-0.4777,-0.4776,-0.4775,-0.4774,0,0,-0.5647,-0.5515,-0.5508,-0.5463,-0.5366,-0.5322,-0.5269,-0.5193,-0.516,-0.5094,-0.5046,-0.4959,-0.4936,-0.4889,-0.4843,-0.4812,-0.4798,-0.4792,-0.4789,-0.4795,-0.4741,-0.4759,-0.4756,-0.4773,-0.4772,-0.4771,-0.4747,0,-0.5641,-0.5546,-0.5483,-0.5412,-0.5358,-0.5295,-0.5249,-0.5183,-0.5131,-0.5076,-0.5018,-0.4957,-0.4932,-0.4903,-0.487,-0.4807,-0.4786,-0.4808,-0.4727,-0.4725,-0.4749,-0.4751,-0.477,-0.4751,-0.4743,-0.4742,-0.4742,0,-0.5622,-0.5556,-0.5481,-0.5386,-0.5361,-0.5321,-0.5243,-0.5192,-0.5114,-0.5078,-0.5024,-0.4976,-0.4915,-0.4902,-0.4816,-0.4832,-0.4794,-0.4758,-0.4755,-0.4746,-0.4734,-0.474,-0.4743,-0.474,-0.4735,-0.4736,-0.4736,0,-0.5666,-0.5558,-0.5498,-0.5462,-0.535,-0.5323,-0.5275,-0.5198,-0.5154,-0.5085,-0.5055,-0.4981,-0.494,-0.4882,-0.4813,-0.4811,-0.4733,-0.4715,-0.4699,-0.4701,-0.4687,-0.4689,-0.4684,-0.4663,-0.4664,-0.4664,-0.4664,0,-0.5665,-0.5621,-0.5516,-0.5479,-0.5425,-0.5351,-0.53,-0.5246,-0.5177,-0.5126,-0.5066,-0.5019,-0.4932,-0.4874,-0.482,-0.4755,-0.4737,-0.4705,-0.4691,-0.471,-0.4714,-0.4685,-0.4684,-0.4663,-0.4663,-0.4663,-0.4663,0,-0.5706,-0.5634,-0.5564,-0.5463,-0.5436,-0.5401,-0.5313,-0.5273,-0.5216,-0.5152,-0.5133,-0.5043,-0.4971,-0.4897,-0.48,-0.4763,-0.4699,-0.468,-0.4726,-0.4718,-0.4706,-0.4707,-0.4681,-0.4673,-0.466,-0.466,-0.466,0,-0.5711,-0.5675,-0.5569,-0.5531,-0.5484,-0.5423,-0.5378,-0.5301,-0.5256,-0.5162,-0.5133,-0.5056,-0.499,-0.4877,-0.4803,-0.4727,-0.4705,-0.4701,-0.4694,-0.4712,-0.4703,-0.4706,-0.4701,-0.4704,-0.4705,-0.4705,-0.4706,0,-0.5726,-0.5691,-0.5629,-0.5552,-0.5499,-0.5435,-0.5368,-0.534,-0.525,-0.5201,-0.5126,-0.5076,-0.4974,-0.4898,-0.4812,-0.476,-0.4717,-0.4708,-0.47,-0.4719,-0.4746,-0.473,-0.4733,-0.4709,-0.4709,-0.4709,-0.4708,-0.4708,-0.5748,-0.5711,-0.563,-0.5561,-0.5502,-0.544,-0.5397,-0.5333,-0.5269,-0.5181,-0.5139,-0.5063,-0.4982,-0.4862,-0.481,-0.4748,-0.4737,-0.4726,-0.4723,-0.4721,-0.4725,-0.4756,-0.4733,-0.4732,-0.4732,-0.4732,-0.4732,0,-0.5759,-0.5702,-0.5639,-0.5547,-0.5491,-0.5455,-0.5378,-0.5333,-0.5268,-0.5195,-0.5131,-0.5043,-0.4967,-0.4885,-0.4803,-0.4769,-0.4747,-0.475,-0.4752,-0.474,-0.4741,-0.4755,-0.4769,-0.4769,-0.4769,-0.4769,-0.4769,-0.4769,-0.5758,-0.5693,-0.5648,-0.5552,-0.5494,-0.542,-0.5379,-0.532,-0.5262,-0.5166,-0.5102,-0.5049,-0.4971,-0.4883,-0.481,-0.4787,-0.476,-0.4769,-0.474,-0.4743,-0.474,-0.4738,-0.4751,-0.4764,-0.4764,-0.4744,-0.4744,-0.4744]}]]